Time,TemperatureF,DewpointF,PressureIn,WindDirection,WindDirectionDegrees,WindSpeedMPH,WindSpeedGustMPH,Humidity,HourlyPrecipIn,Conditions,Clouds,dailyrainin,SoftwareType,DateUTC
2013-01-19 00:02:00,39.0,19.0,-100.00,WNW,295,13.0,17.0,43,0.00,,,-99.99,,2013-01-19 07:02:00,
2013-01-19 00:11:00,40.0,18.0,-100.00,WNW,292,14.0,18.0,42,0.00,,,-99.99,,2013-01-19 07:11:00,
2013-01-19 00:22:00,40.0,18.0,-100.00,WNW,289,17.0,20.0,40,0.00,,,-99.99,,2013-01-19 07:22:00,
2013-01-19 00:32:00,40.0,18.0,-100.00,WNW,295,15.0,19.0,40,0.00,,,-99.99,,2013-01-19 07:32:00,
2013-01-19 00:52:00,40.0,17.0,-100.00,WNW,292,17.0,21.0,38,0.00,,,-99.99,,2013-01-19 07:52:00,
2013-01-19 01:02:00,40.0,17.0,-100.00,WNW,289,17.0,21.0,38,0.00,,,-99.99,,2013-01-19 08:02:00,
2013-01-19 01:11:00,40.0,17.0,-100.00,WNW,288,17.0,22.0,39,0.00,,,-99.99,,2013-01-19 08:11:00,
2013-01-19 01:22:00,38.0,18.0,-100.00,WNW,287,17.0,21.0,45,0.00,,,-99.99,,2013-01-19 08:22:00,
2013-01-19 01:32:00,39.0,16.0,-100.00,WNW,289,16.0,20.0,39,0.00,,,-99.99,,2013-01-19 08:32:00,
2013-01-19 01:42:00,39.0,17.0,-100.00,WNW,289,17.0,19.0,39,0.00,,,-99.99,,2013-01-19 08:42:00,
2013-01-19 01:52:00,39.0,17.0,-100.00,WNW,288,16.0,19.0,40,0.00,,,-99.99,,2013-01-19 08:52:00,
2013-01-19 02:02:00,38.0,16.0,-100.00,WNW,287,15.0,18.0,40,0.00,,,-99.99,,2013-01-19 09:02:00,
2013-01-19 02:11:00,38.0,17.0,-100.00,WNW,287,15.0,18.0,42,0.00,,,-99.99,,2013-01-19 09:11:00,
2013-01-19 02:22:00,39.0,15.0,-100.00,WNW,287,16.0,21.0,37,0.00,,,-99.99,,2013-01-19 09:22:00,
2013-01-19 02:32:00,38.0,16.0,-100.00,WNW,288,14.0,19.0,39,0.00,,,-99.99,,2013-01-19 09:32:00,
2013-01-19 02:42:00,38.0,16.0,-100.00,WNW,288,12.0,16.0,40,0.00,,,-99.99,,2013-01-19 09:42:00,
2013-01-19 02:52:00,38.0,16.0,-100.00,West,267,13.0,17.0,40,0.00,,,-99.99,,2013-01-19 09:52:00,
2013-01-19 03:01:00,40.0,14.0,-100.00,West,272,17.0,22.0,34,0.00,,,-99.99,,2013-01-19 10:01:00,
2013-01-19 03:11:00,40.0,15.0,-100.00,West,270,15.0,22.0,36,0.00,,,-99.99,,2013-01-19 10:11:00,
2013-01-19 03:22:00,38.0,16.0,-100.00,West,264,12.0,16.0,41,0.00,,,-99.99,,2013-01-19 10:22:00,
2013-01-19 03:32:00,38.0,16.0,-100.00,West,271,13.0,16.0,40,0.00,,,-99.99,,2013-01-19 10:32:00,
2013-01-19 03:42:00,37.0,15.0,-100.00,West,278,12.0,16.0,41,0.00,,,-99.99,,2013-01-19 10:42:00,
2013-01-19 03:52:00,37.0,16.0,-100.00,West,281,12.0,16.0,42,0.00,,,-99.99,,2013-01-19 10:52:00,
2013-01-19 04:02:00,39.0,14.0,-100.00,WNW,282,13.0,21.0,37,0.00,,,-99.99,,2013-01-19 11:02:00,
2013-01-19 04:11:00,39.0,16.0,-100.00,West,278,15.0,21.0,39,0.00,,,-99.99,,2013-01-19 11:11:00,
2013-01-19 05:52:00,35.0,14.0,-100.00,WNW,289,11.0,12.0,42,0.00,,,-99.99,,2013-01-19 12:52:00,
2013-01-19 06:02:00,36.0,14.0,-100.00,WNW,291,11.0,12.0,41,0.00,,,-99.99,,2013-01-19 13:02:00,
2013-01-19 06:11:00,35.0,15.0,-100.00,WNW,295,11.0,12.0,43,0.00,,,-99.99,,2013-01-19 13:11:00,
2013-01-19 06:22:00,34.0,15.0,-100.00,WNW,294,11.0,12.0,45,0.00,,,-99.99,,2013-01-19 13:22:00,
2013-01-19 06:32:00,34.0,15.0,-100.00,WNW,288,12.0,13.0,45,0.00,,,-99.99,,2013-01-19 13:32:00,
2013-01-19 06:42:00,34.0,15.0,-100.00,WNW,284,12.0,14.0,46,0.00,,,-99.99,,2013-01-19 13:42:00,
2013-01-19 06:52:00,33.0,16.0,-100.00,WNW,284,11.0,12.0,50,0.00,,,-99.99,,2013-01-19 13:52:00,
2013-01-19 07:01:00,34.0,15.0,-100.00,West,281,11.0,12.0,45,0.00,,,-99.99,,2013-01-19 14:01:00,
2013-01-19 07:12:00,34.0,15.0,-100.00,WNW,282,12.0,14.0,45,0.00,,,-99.99,,2013-01-19 14:12:00,
2013-01-19 07:22:00,35.0,14.0,-100.00,WNW,284,12.0,14.0,43,0.00,,,-99.99,,2013-01-19 14:22:00,
2013-01-19 07:33:00,35.0,14.0,-100.00,WNW,284,13.0,16.0,42,0.00,,,-99.99,,2013-01-19 14:33:00,
2013-01-19 07:42:00,35.0,14.0,-100.00,WNW,284,12.0,16.0,42,0.00,,,-99.99,,2013-01-19 14:42:00,
2013-01-19 07:52:00,35.0,14.0,-100.00,WNW,288,12.0,15.0,42,0.00,,,-99.99,,2013-01-19 14:52:00,
2013-01-19 08:02:00,35.0,13.0,-100.00,WNW,282,14.0,16.0,40,0.00,,,-99.99,,2013-01-19 15:02:00,
2013-01-19 08:11:00,35.0,14.0,-100.00,WNW,282,14.0,16.0,41,0.00,,,-99.99,,2013-01-19 15:11:00,
2013-01-19 08:22:00,36.0,14.0,-100.00,West,281,14.0,16.0,40,0.00,,,-99.99,,2013-01-19 15:22:00,
2013-01-19 08:32:00,36.0,15.0,-100.00,West,281,14.0,16.0,41,0.00,,,-99.99,,2013-01-19 15:32:00,
2013-01-19 08:42:00,37.0,15.0,-100.00,WNW,282,12.0,15.0,41,0.00,,,-99.99,,2013-01-19 15:42:00,
2013-01-19 08:52:00,38.0,15.0,-100.00,WNW,284,12.0,15.0,38,0.00,,,-99.99,,2013-01-19 15:52:00,
2013-01-19 09:02:00,40.0,15.0,-100.00,WNW,284,12.0,16.0,35,0.00,,,-99.99,,2013-01-19 16:02:00,
2013-01-19 09:12:00,40.0,15.0,-100.00,WNW,287,13.0,16.0,36,0.00,,,-99.99,,2013-01-19 16:12:00,
2013-01-19 09:22:00,40.0,17.0,-100.00,NW,315,15.0,22.0,40,0.00,,,-99.99,,2013-01-19 16:22:00,
2013-01-19 09:32:00,38.0,17.0,-100.00,NNW,329,11.0,17.0,41,0.00,,,-99.99,,2013-01-19 16:32:00,
2013-01-19 09:42:00,38.0,16.0,-100.00,NW,322,15.0,22.0,40,0.00,,,-99.99,,2013-01-19 16:42:00,
2013-01-19 09:53:00,39.0,15.0,-100.00,NW,313,19.0,25.0,37,0.00,,,-99.99,,2013-01-19 16:53:00,
2013-01-19 10:02:00,39.0,16.0,-100.00,NW,316,21.0,26.0,39,0.00,,,-99.99,,2013-01-19 17:02:00,
2013-01-19 10:22:00,38.0,19.0,-100.00,WNW,301,17.0,22.0,45,0.00,,,-99.99,,2013-01-19 17:22:00,
2013-01-19 10:33:00,38.0,18.0,-100.00,NW,311,17.0,23.0,44,0.00,,,-99.99,,2013-01-19 17:33:00,
2013-01-19 10:53:00,38.0,20.0,-100.00,NW,315,19.0,27.0,48,0.00,,,-99.99,,2013-01-19 17:53:00,
2013-01-19 11:02:00,37.0,21.0,-100.00,WNW,287,15.0,19.0,51,0.00,,,-99.99,,2013-01-19 18:02:00,
2013-01-19 11:11:00,37.0,20.0,-100.00,WNW,282,16.0,22.0,49,0.00,,,-99.99,,2013-01-19 18:11:00,
2013-01-19 11:23:00,37.0,22.0,-100.00,WNW,296,16.0,22.0,54,0.00,,,-99.99,,2013-01-19 18:23:00,
2013-01-19 11:32:00,38.0,21.0,-100.00,WNW,299,13.0,17.0,51,0.00,,,-99.99,,2013-01-19 18:32:00,
2013-01-19 11:53:00,37.0,21.0,-100.00,WNW,299,12.0,16.0,53,0.00,,,-99.99,,2013-01-19 18:53:00,
2013-01-19 12:02:00,37.0,21.0,-100.00,WNW,301,9.0,15.0,53,0.00,,,-99.99,,2013-01-19 19:02:00,
2013-01-19 12:12:00,37.0,21.0,-100.00,WNW,291,11.0,15.0,52,0.00,,,-99.99,,2013-01-19 19:12:00,
2013-01-19 12:42:00,36.0,21.0,-100.00,NW,318,11.0,15.0,55,0.00,,,-99.99,,2013-01-19 19:42:00,
2013-01-19 12:53:00,36.0,21.0,-100.00,NW,315,12.0,17.0,55,0.00,,,-99.99,,2013-01-19 19:53:00,
2013-01-19 13:02:00,36.0,21.0,-100.00,NW,320,9.0,14.0,54,0.00,,,-99.99,,2013-01-19 20:02:00,
2013-01-19 13:12:00,36.0,21.0,-100.00,NW,322,9.0,14.0,55,0.00,,,-99.99,,2013-01-19 20:12:00,
2013-01-19 13:22:00,36.0,22.0,-100.00,NW,323,9.0,13.0,55,0.00,,,-99.99,,2013-01-19 20:22:00,
2013-01-19 13:32:00,36.0,21.0,-100.00,NNW,329,7.0,12.0,53,0.00,,,-99.99,,2013-01-19 20:32:00,
2013-01-19 13:42:00,36.0,22.0,-100.00,NW,313,9.0,13.0,56,0.00,,,-99.99,,2013-01-19 20:42:00,
2013-01-19 13:53:00,36.0,21.0,-100.00,NW,326,7.0,12.0,54,0.00,,,-99.99,,2013-01-19 20:53:00,
2013-01-19 14:02:00,36.0,22.0,-100.00,NW,326,7.0,12.0,56,0.00,,,-99.99,,2013-01-19 21:02:00,
2013-01-19 14:12:00,37.0,22.0,-100.00,NW,325,7.0,12.0,55,0.00,,,-99.99,,2013-01-19 21:12:00,
2013-01-19 14:22:00,37.0,22.0,-100.00,NW,304,7.0,11.0,54,0.00,,,-99.99,,2013-01-19 21:22:00,
2013-01-19 14:32:00,37.0,23.0,-100.00,NW,309,7.0,11.0,58,0.00,,,-99.99,,2013-01-19 21:32:00,
2013-01-19 14:43:00,36.0,22.0,-100.00,NNW,336,4.0,7.0,56,0.00,,,-99.99,,2013-01-19 21:43:00,
2013-01-19 15:02:00,36.0,22.0,-100.00,North,0,4.0,7.0,57,0.00,,,-99.99,,2013-01-19 22:02:00,
2013-01-19 15:12:00,35.0,21.0,-100.00,North,359,4.0,7.0,56,0.00,,,-99.99,,2013-01-19 22:12:00,
2013-01-19 15:22:00,34.0,26.0,-100.00,NNE,31,7.0,10.0,71,0.00,,,-99.99,,2013-01-19 22:22:00,
2013-01-19 15:32:00,33.0,26.0,-100.00,NE,38,7.0,9.0,73,0.00,,,-99.99,,2013-01-19 22:32:00,
2013-01-19 15:42:00,33.0,26.0,-100.00,NNE,31,6.0,7.0,75,0.00,,,-99.99,,2013-01-19 22:42:00,
2013-01-19 15:53:00,33.0,26.0,-100.00,NNE,31,4.0,6.0,77,0.00,,,-99.99,,2013-01-19 22:53:00,
2013-01-19 16:12:00,33.0,26.0,-100.00,North,356,2.0,4.0,75,0.00,,,-99.99,,2013-01-19 23:12:00,
2013-01-19 16:22:00,33.0,26.0,-100.00,North,8,1.0,3.0,75,0.00,,,-99.99,,2013-01-19 23:22:00,
2013-01-19 16:32:00,33.0,26.0,-100.00,North,3,1.0,2.0,76,0.00,,,-99.99,,2013-01-19 23:32:00,
2013-01-19 16:54:00,32.0,25.0,-100.00,NNE,23,2.0,4.0,76,0.00,,,-99.99,,2013-01-19 23:54:00,
2013-01-19 17:02:00,31.0,25.0,-100.00,NNE,30,2.0,4.0,77,0.00,,,-99.99,,2013-01-20 00:02:00,
2013-01-19 17:22:00,31.0,25.0,-100.00,NNE,14,2.0,3.0,78,0.00,,,-99.99,,2013-01-20 00:22:00,
2013-01-19 17:33:00,30.0,25.0,-100.00,NE,40,1.0,2.0,79,0.00,,,-99.99,,2013-01-20 00:33:00,
2013-01-19 17:43:00,30.0,25.0,-100.00,NNE,32,1.0,2.0,80,0.00,,,-99.99,,2013-01-20 00:43:00,
2013-01-19 18:02:00,30.0,24.0,-100.00,ENE,58,1.0,4.0,80,0.00,,,-99.99,,2013-01-20 01:02:00,
2013-01-19 18:12:00,29.0,24.0,-100.00,ENE,75,2.0,4.0,80,0.00,,,-99.99,,2013-01-20 01:12:00,
2013-01-19 18:22:00,29.0,24.0,-100.00,ESE,112,2.0,4.0,79,0.00,,,-99.99,,2013-01-20 01:22:00,
2013-01-19 18:32:00,29.0,24.0,-100.00,ESE,119,2.0,4.0,82,0.00,,,-99.99,,2013-01-20 01:32:00,
2013-01-19 18:42:00,29.0,24.0,-100.00,SE,136,5.0,7.0,83,0.00,,,-99.99,,2013-01-20 01:42:00,
2013-01-19 18:52:00,29.0,24.0,-100.00,SE,143,5.0,6.0,83,0.00,,,-99.99,,2013-01-20 01:52:00,
2013-01-19 19:01:00,28.0,24.0,-100.00,ESE,113,2.0,5.0,85,0.00,,,-99.99,,2013-01-20 02:01:00,
2013-01-19 19:11:00,28.0,24.0,-100.00,ESE,120,2.0,4.0,85,0.00,,,-99.99,,2013-01-20 02:11:00,
2013-01-19 19:23:00,28.0,24.0,-100.00,SSE,158,6.0,9.0,87,0.00,,,-99.99,,2013-01-20 02:23:00,
2013-01-19 19:33:00,27.0,24.0,-100.00,SSE,152,8.0,9.0,85,0.00,,,-99.99,,2013-01-20 02:33:00,
2013-01-19 19:42:00,27.0,23.0,-100.00,SSE,162,10.0,12.0,85,0.00,,,-99.99,,2013-01-20 02:42:00,
2013-01-19 19:53:00,27.0,23.0,-100.00,SSE,158,9.0,12.0,85,0.00,,,-99.99,,2013-01-20 02:53:00,
2013-01-19 20:02:00,27.0,24.0,-100.00,SSE,152,11.0,14.0,86,0.00,,,-99.99,,2013-01-20 03:02:00,
2013-01-19 20:12:00,28.0,24.0,-100.00,SSE,151,11.0,14.0,84,0.00,,,-99.99,,2013-01-20 03:12:00,
2013-01-19 20:22:00,27.0,24.0,-100.00,SSE,158,10.0,13.0,88,0.00,,,-99.99,,2013-01-20 03:22:00,
2013-01-19 20:32:00,26.0,23.0,-100.00,SSE,147,12.0,14.0,89,0.00,,,-99.99,,2013-01-20 03:32:00,
2013-01-19 20:42:00,27.0,23.0,-100.00,SSE,157,10.0,12.0,86,0.00,,,-99.99,,2013-01-20 03:42:00,
2013-01-19 20:52:00,27.0,23.0,-100.00,SSE,158,9.0,11.0,84,0.00,,,-99.99,,2013-01-20 03:52:00,
2013-01-19 21:02:00,27.0,23.0,-100.00,SSE,167,8.0,11.0,85,0.00,,,-99.99,,2013-01-20 04:02:00,
2013-01-19 21:11:00,27.0,23.0,-100.00,SSE,160,9.0,12.0,84,0.00,,,-99.99,,2013-01-20 04:11:00,
2013-01-19 21:22:00,26.0,23.0,-100.00,SSE,164,9.0,11.0,86,0.00,,,-99.99,,2013-01-20 04:22:00,
2013-01-19 21:32:00,27.0,23.0,-100.00,SSE,167,8.0,11.0,86,0.00,,,-99.99,,2013-01-20 04:32:00,
2013-01-19 21:52:00,27.0,23.0,-100.00,SSE,167,9.0,11.0,85,0.00,,,-99.99,,2013-01-20 04:52:00,
2013-01-19 22:01:00,27.0,23.0,-100.00,SSE,158,7.0,9.0,86,0.00,,,-99.99,,2013-01-20 05:01:00,
2013-01-19 22:12:00,-999.0,-99.9,-100.00,SSE,154,7.0,9.0,-999,-99.99,,,-99.99,,2013-01-20 05:12:00,
2013-01-19 22:22:00,27.0,23.0,-100.00,SSE,164,6.0,8.0,84,0.00,,,-99.99,,2013-01-20 05:22:00,
2013-01-19 22:32:00,27.0,23.0,-100.00,South,169,7.0,8.0,85,0.00,,,-99.99,,2013-01-20 05:32:00,
2013-01-19 22:42:00,28.0,23.0,-100.00,South,174,6.0,7.0,84,0.00,,,-99.99,,2013-01-20 05:42:00,
2013-01-19 22:52:00,28.0,24.0,-100.00,SSE,168,4.0,6.0,82,0.00,,,-99.99,,2013-01-20 05:52:00,
2013-01-19 23:02:00,28.0,24.0,-100.00,SSE,165,2.0,4.0,82,0.00,,,-99.99,,2013-01-20 06:02:00,
2013-01-19 23:11:00,26.0,22.0,-100.00,SW,236,1.0,3.0,84,0.00,,,-99.99,,2013-01-20 06:11:00,
2013-01-19 23:22:00,28.0,22.0,-100.00,SW,222,1.0,4.0,78,0.00,,,-99.99,,2013-01-20 06:22:00,
2013-01-19 23:32:00,28.0,22.0,-100.00,NNW,329,1.0,3.0,78,0.00,,,-99.99,,2013-01-20 06:32:00,
2013-01-19 23:42:00,30.0,18.0,-100.00,NW,312,4.0,7.0,60,0.00,,,-99.99,,2013-01-20 06:42:00,
2013-01-19 23:52:00,33.0,16.0,-100.00,WNW,299,7.0,9.0,49,0.00,,,-99.99,,2013-01-20 06:52:00,